Location: Saluda
(35.2377°N, 82.3468°W)
Time: 03:15:03
(UTC+00:00)

Vanguard 2 Rocket - Pass Details

Date: 09 October 2022
Orbit: 555 x 3321 km, 32.9° (Epoch: 05 December)

Event Time Altitude Azimuth Distance (km) Brightness Sun altitude
Rises 04:21:12 0° 264° (W) 7,105 11.6 -58.3°
Reaches altitude 10° 04:26:22 10° 264° (W) 5,847 11.0 -58.8°
Enters shadow 04:32:02 24° 263° (W) 4,404 10.3 -59.2°
Maximum altitude 04:43:13 81° 180° (S) 2,080 - -60.0°
Drops below altitude 10° 04:52:39 10° 95° (E) 3,485 - -60.5°
Sets 04:54:58 0° 94° (E) 4,185 - -60.6°
